This is the latest recevied weather packets stored in our database for station/object N3WPH. If no packets are shown the sender has not sent any weather packets the latest 10 day(s).
| Time | Temp. | Humidity | Pressure | Rain* | Wind** | Luminosity | Snow |
|---|---|---|---|---|---|---|---|
| 1777487899 | 13.89° C | 77% | 1011.5 hPa | 0 mm | - | 61 W/m² | - |
| 1777487596 | 13.89° C | 77% | 1011.5 hPa | 0 mm | - | 85 W/m² | - |
| 1777487293 | 13.89° C | 76% | 1011.6 hPa | 0 mm | - | 79 W/m² | - |
| 1777486990 | 14.44° C | 74% | 1011.6 hPa | 0 mm | - | 64 W/m² | - |
| 1777486686 | 14.44° C | 74% | 1011.5 hPa | 0 mm | - | 64 W/m² | - |
| 1777486384 | 14.44° C | 74% | 1011.7 hPa | 0 mm | - | 52 W/m² | - |
| 1777486082 | 14.44° C | 74% | 1011.7 hPa | 0 mm | - | 63 W/m² | - |
| 1777485778 | 14.44° C | 73% | 1011.6 hPa | 0 mm | - | 57 W/m² | - |
| 1777485473 | 15° C | 73% | 1011.7 hPa | 0 mm | - | 55 W/m² | - |
| 1777485170 | 15° C | 73% | 1011.8 hPa | 0 mm | - | 72 W/m² | - |
| 1777484866 | 15° C | 73% | 1011.8 hPa | 0 mm | - | 89 W/m² | - |
| 1777484563 | 15° C | 73% | 1011.6 hPa | 0 mm | - | 96 W/m² | - |
| 1777484260 | 15° C | 74% | 1011.9 hPa | 0 mm | - | 122 W/m² | - |
| 1777483956 | 15° C | 74% | 1011.9 hPa | 0 mm | - | 154 W/m² | - |
| 1777483653 | 15° C | 74% | 1011.8 hPa | 0 mm | - | 125 W/m² | - |
| 1777483348 | 15° C | 75% | 1011.7 hPa | 0 mm | - | 134 W/m² | - |
| 1777483044 | 15° C | 76% | 1011.9 hPa | 0 mm | - | 104 W/m² | - |
| 1777482741 | 15° C | 76% | 1012.1 hPa | 0 mm | - | 100 W/m² | - |
| 1777482437 | 15.56° C | 76% | 1011.9 hPa | 0 mm | - | 149 W/m² | - |
| 1777482134 | 15° C | 76% | 1012.2 hPa | 0 mm | - | 239 W/m² | - |
| 1777481832 | 15° C | 77% | 1012.1 hPa | 0 mm | - | 252 W/m² | - |
| 1777481529 | 14.44° C | 78% | 1012.3 hPa | 0 mm | - | 164 W/m² | - |
| 1777481226 | 14.44° C | 78% | 1012.3 hPa | 0 mm | - | 127 W/m² | - |
| 1777480923 | 14.44° C | 78% | 1012.4 hPa | 0 mm | - | 100 W/m² | - |
| 1777480619 | 14.44° C | 78% | 1012.5 hPa | 0 mm | - | 101 W/m² | - |
* Rain latest hour (hover to see other rain measurements)
** Current wind speed in m/s (hover to see current wind gust speed)